GFSSGP_sfc_temp_132.txt.gz
Temp
84 89 91 89 74 72 65 65 71 68 70 73 75 73 73 72 69 64 74 78 81 81 82 80 74 75 75 75 75 75 76 76 77 76 76 75 76 76 75 75 75 75 75 76 75 75 74 73 73
89 87 90 82 69 62 67 69 66 71 71 74 72 71 71 69 71 68 69 75 82 81 82 82 73 75 75 75 75 75 76 76 76 76 75 74 75 75 75 75 75 75 75 76 75 74 74 73 73
85 86 82 75 69 63 65 68 71 69 71 72 70 71 71 69 72 70 76 78 80 81 81 79 72 74 75 75 75 75 75 76 76 76 75 75 75 74 74 74 74 74 74 76 75 74 73 72 72
85 88 80 69 64 67 68 71 72 68 70 71 71 69 70 74 73 77 78 79 80 79 81 73 73 74 75 74 75 75 75 75 76 75 75 74 74 74 73 74 74 74 74 74 74 74 73 72 71
86 82 70 65 64 68 72 72 73 70 71 71 70 69 69 72 75 76 76 78 79 79 80 79 72 73 74 74 74 75 75 75 75 75 74 74 73 73 73 73 73 73 73 73 73 73 72 71 71
78 78 66 62 65 68 71 73 73 72 71 70 70 69 70 74 73 74 77 79 81 79 78 79 70 71 72 73 73 74 74 74 74 74 73 73 73 73 73 73 73 74 73 73 72 72 71 71 70
73 71 65 64 65 66 70 74 72 73 71 71 73 70 72 71 74 74 78 80 80 79 78 78 79 74 68 70 71 72 72 73 73 73 72 72 72 72 72 72 73 73 72 72 71 71 71 70 69
77 73 63 65 64 65 70 72 73 74 72 72 75 72 72 75 71 72 77 78 79 78 78 78 79 79 79 77 67 68 69 70 70 70 70 68 70 70 68 68 71 72 71 71 70 70 70 70 68
74 67 62 64 63 68 70 70 71 73 72 70 73 73 73 77 69 69 70 73 75 75 76 78 78 79 79 79 72 66 66 66 66 67 64 68 76 74 73 66 68 70 70 70 69 69 67 67 66
71 65 65 70 71 69 70 71 71 70 70 71 71 72 72 73 67 66 65 66 69 72 75 77 78 78 78 78 76 77 75 76 76 75 74 75 75 75 73 67 65 66 67 68 68 67 65 67 75
66 65 68 69 71 71 70 69 72 71 68 75 74 75 71 70 66 66 67 69 71 74 74 75 77 77 77 76 76 77 76 76 75 75 74 75 74 72 74 73 72 73 64 75 72 71 75 73 76
63 66 68 68 68 68 68 71 68 71 76 75 78 77 71 69 66 67 67 67 72 74 74 75 76 76 77 77 76 76 75 75 74 74 73 73 73 72 73 74 73 72 74 73 73 75 73 73 73
63 65 67 69 68 69 68 68 70 69 77 73 73 71 71 71 71 70 70 69 70 72 73 74 75 76 76 75 76 75 75 74 75 74 73 74 73 72 73 73 73 73 74 74 73 73 73 72 72
65 64 66 67 67 68 65 69 67 73 76 73 71 73 73 72 71 69 67 68 72 72 73 73 72 75 77 75 75 75 75 75 74 74 73 72 74 73 72 72 72 73 74 75 74 73 73 73 73
63 60 63 66 67 66 67 63 63 76 71 72 72 74 73 72 73 71 71 71 74 74 75 73 72 74 74 75 75 75 75 74 73 73 73 72 72 73 72 72 72 73 73 72 72 72 72 72 72
60 59 55 64 64 66 66 58 72 75 72 73 75 75 73 72 72 73 74 75 77 76 74 74 73 70 73 75 75 75 75 74 74 74 74 72 72 72 72 72 72 73 73 73 72 72 71 71 71
53 53 52 57 63 63 62 60 70 71 69 71 75 76 74 74 73 75 75 75 76 76 76 74 74 72 71 74 75 75 74 74 74 74 74 73 72 72 72 72 73 73 72 72 72 71 71 70 70
48 48 50 53 60 59 60 59 67 67 66 69 73 75 72 73 73 77 76 75 76 76 76 76 74 74 73 73 73 73 73 73 75 74 73 73 73 71 71 72 71 72 71 70 70 69 70 70 69
52 49 48 51 59 55 58 59 64 70 69 68 70 72 72 73 78 78 75 75 74 74 74 74 74 73 74 71 69 67 66 71 71 72 72 73 73 72 71 71 71 71 69 69 70 69 68 67 67
48 46 43 50 54 52 57 56 63 66 65 68 70 72 73 73 75 75 75 74 73 73 73 73 74 74 73 73 72 72 71 73 73 72 71 71 72 71 71 70 70 70 68 68 69 68 66 66 65
47 42 42 42 45 51 52 53 58 65 66 68 70 72 74 75 76 78 77 74 73 72 72 72 73 74 74 73 73 72 73 71 69 71 70 70 71 70 69 70 70 69 69 68 68 68 66 63 64
45 52 50 48 41 36 52 40 56 61 62 63 66 69 71 74 76 77 78 78 74 73 74 74 74 74 74 73 71 69 68 65 70 72 71 71 71 70 70 69 70 69 69 68 68 69 68 66 63
50 53 50 48 44 44 47 39 51 58 55 61 67 70 72 73 74 76 76 77 78 75 73 73 74 73 74 73 72 70 69 72 73 73 72 71 71 70 70 69 69 68 69 68 68 67 67 68 66
53 49 48 47 44 35 46 45 49 55 58 62 67 70 72 73 73 73 74 74 74 75 72 72 72 72 73 72 72 72 69 70 71 71 70 70 71 70 70 69 68 69 69 68 68 68 67 66 67
50 46 34 32 32 35 44 44 50 60 61 62 66 70 72 72 70 72 71 70 70 71 70 70 71 71 72 72 72 72 72 71 70 71 70 70 70 69 69 68 67 68 68 68 69 67 66 66 66
45 47 38 29 31 40 40 39 50 60 64 66 67 68 67 68 69 67 69 69 69 69 69 70 69 70 72 71 71 72 72 73 73 72 72 70 71 70 70 69 69 69 69 68 68 67 66 66 65
43 38 50 37 29 35 45 50 55 58 59 60 60 63 65 67 68 66 68 69 70 69 68 68 69 70 71 71 71 71 71 72 72 72 72 72 71 70 70 69 68 69 68 67 67 66 64 64 62
49 50 35 34 30 30 43 43 49 53 56 60 61 61 64 67 66 67 67 67 68 69 69 69 69 69 70 70 70 69 70 71 71 72 70 69 70 69 67 67 67 67 67 67 66 64 61 59 59
40 39 39 42 36 32 33 45 60 60 63 61 62 61 62 61 63 65 66 66 64 64 63 64 67 67 67 68 69 68 68 68 69 69 69 68 68 68 66 66 66 66 65 66 63 60 59 57 57
51 44 43 35 34 37 37 41 60 61 61 56 60 62 60 59 60 63 64 63 63 62 62 60 63 64 66 67 67 67 67 67 66 66 67 67 66 67 65 65 64 64 64 64 61 58 57 57 56

GFSSGP_sfc_temp_135.txt.gz
Temp
85 96 95 91 75 75 69 69 77 72 73 78 81 77 76 77 72 64 80 82 85 84 83 80 74 76 75 75 75 75 76 76 76 76 76 76 75 76 76 75 75 76 76 76 75 75 74 74 73
89 94 91 85 70 65 70 74 70 75 76 79 77 77 76 72 77 69 72 81 85 85 85 81 73 75 75 75 75 75 76 76 76 76 75 76 75 75 75 75 75 75 76 75 75 74 73 73 73
91 93 83 76 70 65 68 73 75 74 76 76 75 77 77 74 77 75 80 83 85 84 85 77 73 74 75 75 75 75 75 76 75 75 74 75 75 75 74 75 74 76 76 75 75 74 74 73 72
89 90 85 71 66 72 73 75 77 73 74 76 77 73 76 78 78 80 80 84 84 83 81 73 73 74 75 74 75 75 75 76 75 75 75 74 75 74 74 74 74 74 75 74 74 74 73 71 71
91 85 72 68 68 72 76 78 78 75 76 76 76 73 73 76 80 80 78 82 82 79 79 78 72 73 74 74 75 75 75 76 75 74 74 74 74 74 73 74 74 74 74 74 73 72 71 71 70
81 81 67 65 70 73 75 78 79 78 77 75 74 75 75 79 78 77 79 80 82 80 82 79 70 71 72 73 73 74 74 74 74 74 74 74 73 73 73 74 74 73 73 73 73 72 71 70 70
76 73 68 68 69 70 74 79 77 77 77 75 79 73 76 76 79 78 78 80 81 83 81 80 79 74 68 70 71 72 73 73 73 73 73 72 71 72 72 72 73 73 72 72 72 71 71 70 69
80 76 69 70 68 68 76 77 79 78 77 80 81 74 75 79 78 77 79 80 82 81 81 81 81 79 78 76 67 68 70 70 71 71 69 68 69 69 69 69 71 72 72 71 70 70 70 70 68
81 69 66 69 68 71 76 74 77 80 77 77 78 78 79 80 75 73 74 75 79 79 80 81 81 81 79 76 72 66 66 67 67 67 66 66 74 73 71 67 69 70 70 70 70 69 68 67 66
73 68 69 76 76 73 75 75 77 74 76 75 75 78 79 75 69 68 68 70 74 76 78 81 81 81 80 76 74 75 74 75 75 75 73 75 76 76 75 67 65 67 67 69 69 68 66 64 74
73 67 76 74 76 76 75 73 78 74 73 78 77 78 76 72 67 67 69 71 74 78 79 80 80 81 81 75 73 73 73 76 77 76 75 77 76 74 74 72 71 71 64 72 70 69 73 74 75
66 73 73 74 72 72 72 77 73 75 78 80 83 84 78 75 68 68 69 70 76 77 78 79 80 80 80 78 75 73 73 75 76 76 76 75 74 73 73 74 73 73 73 74 73 74 74 73 74
66 71 72 74 71 72 73 71 73 75 81 79 79 78 78 77 75 75 75 74 75 77 78 78 79 80 79 78 76 74 73 76 77 76 75 75 74 72 74 74 74 73 74 74 73 74 73 73 73
72 71 71 72 72 72 68 72 71 76 82 80 77 77 79 78 78 76 75 74 71 76 78 79 78 78 79 78 77 77 77 77 77 76 75 74 75 74 74 73 73 73 75 75 75 74 73 71 71
68 63 67 69 70 69 70 65 67 77 77 77 77 79 80 79 80 77 77 75 74 75 78 77 76 77 77 77 78 77 77 78 76 75 75 74 74 75 74 73 73 73 74 74 74 73 73 72 71
61 63 57 68 70 69 67 59 73 79 78 75 78 80 79 79 79 81 80 78 77 79 78 78 77 75 76 77 78 77 78 77 76 76 75 74 74 74 73 73 73 74 74 73 72 72 71 68 69
59 53 56 62 69 67 64 61 72 79 76 74 77 79 80 81 81 81 81 80 79 80 79 78 77 75 75 77 78 77 76 76 76 76 76 74 74 74 73 73 73 74 73 72 72 72 71 68 66
51 52 57 59 64 64 62 62 70 73 71 72 75 78 79 80 80 83 82 81 80 81 81 80 78 76 75 76 76 77 75 75 77 76 76 75 75 73 72 73 73 73 72 71 71 70 71 69 66
51 47 53 61 61 57 59 62 66 72 73 73 73 75 77 79 82 84 83 82 79 79 79 79 78 77 76 73 72 71 70 72 73 75 75 75 74 73 72 72 72 72 70 70 71 70 68 64 67
44 44 46 55 57 55 58 58 64 68 70 72 72 74 76 78 80 81 82 81 79 78 78 78 78 78 76 76 75 73 72 74 74 74 74 74 74 73 72 71 71 71 69 69 69 69 66 66 64
43 42 42 44 52 56 54 53 58 66 69 72 73 75 76 77 78 81 81 80 79 78 77 77 78 78 78 77 76 74 73 72 71 72 71 73 73 73 71 71 70 70 70 69 68 68 66 63 63
40 49 47 44 44 41 53 40 56 62 67 70 72 72 74 77 79 81 82 82 78 78 79 79 78 78 78 78 75 72 69 68 71 72 73 73 73 73 71 70 70 70 70 69 68 69 68 66 63
49 55 51 49 43 44 48 42 53 61 59 65 69 72 75 76 78 79 81 82 84 82 78 78 78 77 78 77 75 73 71 72 73 72 73 72 73 72 72 70 70 69 69 69 69 68 67 68 65
52 48 48 50 46 35 46 48 51 58 62 67 71 74 75 77 78 80 80 80 80 80 79 76 76 77 77 77 76 74 72 72 71 71 72 73 73 72 71 70 69 69 69 68 68 68 67 66 67
49 43 33 32 32 36 52 48 53 63 67 68 69 71 75 75 75 75 75 76 76 75 75 75 75 75 77 76 75 74 73 73 72 73 72 72 71 71 70 70 69 68 69 69 69 67 67 67 65
44 46 38 30 32 41 44 41 53 65 69 70 70 71 72 71 73 73 73 74 74 74 73 74 73 73 75 75 75 75 74 74 74 74 74 73 72 72 72 71 70 69 69 69 69 68 67 66 65
43 38 50 40 33 37 47 52 60 62 63 64 64 66 68 71 69 70 71 71 72 73 73 72 73 73 74 75 75 74 74 73 73 74 74 74 73 73 72 71 69 69 69 68 68 66 65 64 64
51 54 37 37 30 31 44 47 50 58 60 63 63 64 66 66 67 68 70 69 70 70 71 73 74 73 73 74 75 73 73 73 73 74 73 73 73 72 71 70 69 69 69 69 67 65 65 63 62
41 40 43 41 37 35 36 46 60 63 65 62 62 63 64 62 64 65 68 70 68 67 66 66 68 69 70 71 73 72 71 72 72 72 72 72 72 71 70 68 68 67 67 67 66 64 63 61 60
51 46 42 36 33 38 37 42 63 65 66 60 63 64 63 62 63 65 66 69 69 68 66 64 64 65 67 69 69 69 70 69 69 70 70 71 70 70 69 68 66 66 66 66 63 61 58 59 57

GFSSGP_sfc_temp_138.txt.gz
Temp
79 86 88 77 63 63 60 62 70 67 67 70 75 71 67 67 64 56 74 79 81 77 76 75 74 75 75 75 75 75 76 76 75 76 76 77 77 76 76 75 75 76 76 76 75 74 75 73 73
81 86 81 72 60 55 59 67 67 69 72 74 72 71 69 64 71 67 69 79 81 79 78 75 73 75 75 75 75 75 76 76 76 76 75 76 76 76 76 75 75 76 76 75 75 75 74 73 72
86 89 71 66 61 57 60 67 67 70 72 71 69 70 70 67 70 69 76 80 81 79 79 73 73 74 74 74 75 75 76 75 75 75 76 76 76 75 75 75 76 76 75 75 75 74 73 72 71
82 79 76 61 59 65 67 70 71 68 69 72 71 66 70 72 73 75 77 80 79 76 75 71 73 74 74 74 75 75 75 76 76 74 76 75 75 74 75 74 75 75 74 75 74 73 72 71 71
82 74 62 61 63 67 70 73 73 69 69 70 69 66 64 72 76 76 75 79 77 74 74 73 72 73 74 74 74 75 75 75 75 75 75 75 75 75 74 75 75 75 74 74 73 72 71 71 70
70 72 59 57 65 69 69 71 73 72 73 70 66 67 64 73 73 74 75 77 78 75 76 73 69 71 72 73 74 74 74 74 74 74 74 74 74 74 74 74 74 73 74 73 72 71 71 70 69
67 63 59 63 64 65 70 72 67 71 71 70 71 63 65 69 73 76 77 79 78 78 75 73 72 70 68 70 71 72 72 72 73 73 74 72 72 73 72 72 73 73 72 72 72 71 70 70 69
70 66 61 63 62 63 70 71 72 71 68 74 72 64 60 70 72 74 75 76 76 76 74 73 72 71 70 68 67 68 70 70 70 70 69 68 69 70 71 69 72 73 72 71 70 70 70 69 68
75 59 57 62 64 64 71 67 70 71 69 69 72 70 71 73 71 70 72 73 75 73 73 73 73 72 73 70 67 65 66 67 67 66 64 64 66 67 67 67 71 70 70 70 69 69 69 67 66
64 57 62 71 70 68 71 68 69 66 68 67 68 70 72 69 66 65 67 69 73 69 71 72 72 72 72 74 68 67 68 66 66 66 65 66 66 66 70 63 65 67 67 68 69 68 66 64 63
65 59 69 72 69 71 70 66 72 66 64 70 68 69 69 66 64 65 66 68 71 71 71 72 72 73 71 72 70 66 68 65 65 66 65 66 69 64 63 60 61 61 61 62 64 63 62 63 65
62 68 70 70 68 68 67 71 68 68 68 72 73 74 71 65 64 64 66 69 68 73 72 72 73 72 71 70 71 67 69 68 65 66 67 65 64 63 63 61 61 61 61 61 61 61 64 65 67
62 65 70 70 67 66 69 65 65 67 73 72 73 73 70 69 66 67 67 67 68 70 71 71 71 71 72 70 69 70 70 69 68 66 67 66 64 62 63 63 62 62 63 62 63 63 64 64 66
66 66 67 69 68 68 64 64 65 66 72 71 71 69 70 71 70 68 68 67 67 70 71 72 71 72 73 70 70 71 71 70 67 66 66 66 64 63 63 63 63 62 63 64 64 63 63 63 69
64 59 63 64 66 64 64 58 60 69 71 70 69 69 71 71 72 71 71 70 69 69 71 71 72 72 71 72 72 71 70 71 67 66 67 66 66 64 64 62 62 63 63 64 64 64 63 66 67
58 57 50 62 64 66 62 51 64 70 68 67 68 68 70 72 73 72 73 73 71 70 70 71 74 71 70 71 71 72 71 70 68 67 66 66 66 66 64 62 62 63 63 63 62 62 61 64 66
53 46 49 55 67 64 58 52 64 70 69 67 67 68 70 70 72 74 73 72 72 72 72 72 72 70 70 70 70 69 69 70 67 66 66 66 67 67 64 62 62 64 62 62 62 62 62 64 64
44 47 52 54 61 60 56 55 61 67 66 63 64 66 68 70 72 74 74 74 73 73 74 74 73 71 70 69 69 68 70 71 72 69 68 67 68 66 65 63 63 63 61 61 61 61 62 61 64
45 42 44 54 58 54 54 55 59 64 64 62 63 64 66 68 73 74 74 73 71 71 72 73 72 71 70 68 67 67 66 69 70 71 68 68 68 67 65 64 62 63 61 61 62 61 61 59 63
44 41 41 50 56 50 50 52 57 61 62 63 64 64 65 67 70 73 72 71 71 72 72 71 73 72 71 70 69 69 68 68 71 70 70 69 67 67 67 65 64 62 61 61 61 61 58 58 61
43 41 42 42 47 51 47 45 51 59 62 65 66 68 69 68 67 70 71 70 69 70 71 72 73 73 73 72 70 68 67 65 65 67 67 68 69 67 66 66 65 63 64 62 62 60 59 56 59
39 47 47 44 41 36 48 35 47 54 59 61 64 66 67 68 71 72 71 68 69 72 72 73 73 73 73 72 70 68 66 65 66 67 68 68 68 68 67 66 65 64 64 63 62 62 60 58 56
46 50 47 45 41 40 40 36 43 53 53 57 62 63 64 66 66 68 69 71 71 71 70 72 72 72 73 73 71 69 67 67 67 67 66 67 67 68 67 66 65 64 64 64 63 60 61 61 60
53 48 46 46 42 33 39 39 40 49 55 59 61 62 64 65 64 64 66 68 66 66 66 65 68 70 72 72 72 70 68 67 65 65 65 66 67 67 67 66 65 65 64 64 63 63 62 62 62
49 42 33 31 31 31 44 39 44 51 58 58 59 61 63 63 63 63 63 63 64 64 64 64 65 66 68 70 71 71 69 68 67 66 66 65 66 66 66 66 65 64 65 65 64 63 63 62 61
44 44 33 27 27 31 36 33 44 57 58 59 60 61 62 61 60 60 61 61 61 62 63 63 64 64 66 68 70 71 71 70 69 69 68 67 68 68 67 66 66 65 65 65 64 63 63 63 61
43 38 45 35 26 28 36 45 53 56 55 57 58 60 59 59 59 58 60 60 61 60 60 61 62 63 64 65 68 69 70 69 69 69 69 69 69 69 66 66 65 65 65 64 64 63 62 61 61
46 47 34 35 25 24 33 37 42 48 51 56 55 56 56 57 57 58 59 59 59 60 60 59 60 61 62 64 65 68 69 69 69 69 67 68 69 67 64 65 65 64 64 64 63 62 62 61 61
40 40 42 40 33 28 27 35 52 54 54 53 54 56 56 56 56 58 58 59 60 59 58 57 58 58 59 61 62 62 63 66 67 67 67 67 67 66 65 64 64 64 63 63 62 63 63 61 60
47 44 42 34 31 33 31 33 55 55 54 55 55 57 57 55 56 58 58 60 61 61 59 57 57 56 57 59 60 61 62 62 62 65 66 66 65 64 64 64 63 63 63 63 63 63 61 59 58

GFSSGP_sfc_temp_141.txt.gz
Temp
71 75 73 72 60 56 55 58 62 62 61 64 68 67 63 61 60 53 71 74 74 72 74 74 74 75 75 75 75 75 76 76 75 75 76 77 77 76 76 76 75 75 76 76 76 75 74 73 73
70 78 73 65 54 47 52 60 60 62 65 67 69 67 63 58 65 65 68 76 75 73 74 73 73 74 75 74 75 75 75 76 76 76 76 76 76 75 76 76 75 75 76 76 75 75 73 73 72
78 78 65 58 53 49 52 58 61 65 68 66 63 67 64 61 64 66 72 77 75 74 74 72 72 74 74 74 75 75 75 76 76 76 76 76 76 76 75 75 75 75 75 75 75 74 72 72 71
75 70 66 56 52 58 59 61 64 64 67 69 66 61 64 69 68 71 74 78 74 72 72 71 73 74 74 74 75 75 75 76 76 76 76 76 75 75 75 75 75 75 74 75 74 72 72 71 71
70 64 55 52 55 60 61 66 66 63 65 66 66 61 60 67 71 73 73 73 70 71 71 72 72 73 74 74 74 75 75 75 75 76 76 76 76 75 75 74 74 74 75 73 72 72 71 70 70
63 61 51 48 60 65 62 65 66 65 66 67 64 63 60 69 69 70 72 72 72 70 72 71 69 70 72 73 73 74 74 74 74 74 74 74 75 74 75 75 74 74 73 72 72 71 70 70 70
59 55 50 50 56 63 62 67 62 64 65 65 72 61 60 64 68 70 70 75 74 73 71 69 69 69 68 69 70 71 72 72 73 73 74 72 73 73 73 73 74 73 73 72 71 70 70 69 69
62 58 52 51 54 56 64 65 65 66 61 69 68 61 56 64 69 70 70 73 72 71 71 68 68 68 68 68 66 68 69 70 70 70 69 68 69 71 72 71 72 72 72 71 70 70 69 69 68
66 52 49 54 57 57 64 62 67 67 64 65 67 64 66 69 68 66 65 70 72 72 69 68 67 67 67 67 66 65 66 67 66 66 64 64 64 66 67 66 71 71 70 70 69 69 69 67 66
58 50 55 61 61 58 63 63 64 61 61 60 61 63 66 66 64 63 63 64 68 69 67 68 68 68 68 70 65 65 66 64 64 63 63 64 63 63 66 63 66 67 67 68 69 68 66 64 61
58 53 61 62 63 65 63 63 65 61 58 64 63 61 62 62 62 62 62 63 65 69 67 69 69 68 68 68 67 64 63 62 62 62 62 63 64 61 61 60 60 60 61 61 63 62 61 61 62
54 62 63 65 64 64 61 64 62 61 64 67 65 67 63 61 62 61 62 63 65 66 68 68 69 68 68 68 68 65 64 63 62 62 63 61 60 59 59 59 59 59 59 59 59 58 60 61 62
56 60 64 65 63 62 64 60 59 62 67 67 68 67 63 62 62 63 64 64 65 65 68 68 68 67 68 67 67 67 66 66 65 64 64 62 60 59 59 59 58 58 59 58 58 59 60 61 63
59 61 62 63 64 62 60 60 59 62 66 63 67 64 63 62 63 63 63 64 65 66 66 69 68 68 69 68 67 68 68 66 66 66 65 64 62 61 60 59 60 59 59 60 60 60 60 61 63
61 54 56 58 60 60 61 55 56 64 65 65 64 64 65 65 64 64 66 66 68 68 67 68 69 68 67 68 67 68 68 67 64 65 65 65 63 62 62 60 59 60 60 60 60 60 60 60 64
52 53 45 56 60 61 59 49 58 64 61 62 63 61 64 67 66 67 68 69 70 69 69 67 72 69 67 67 68 69 69 69 67 65 66 65 65 63 60 61 60 60 60 60 59 59 59 59 60
48 40 44 49 60 58 55 51 58 64 61 60 60 63 63 64 66 67 70 70 70 70 70 69 69 68 68 66 67 67 68 68 68 68 66 65 66 65 61 60 60 61 59 59 60 59 58 58 59
42 41 44 43 52 55 55 53 56 61 61 58 59 60 62 63 66 68 69 71 72 71 71 71 69 68 68 68 64 64 65 66 68 67 66 65 66 65 64 61 61 60 59 58 58 58 58 58 59
45 42 39 43 51 50 47 47 52 58 58 57 58 59 62 64 68 68 71 70 71 70 69 70 69 68 68 66 66 65 65 66 66 68 67 67 66 65 65 64 61 60 60 61 60 59 58 57 58
45 42 42 45 52 48 46 47 52 55 56 57 58 57 59 61 65 68 67 66 69 70 70 70 70 70 68 68 68 68 67 67 69 67 68 69 67 66 66 64 63 62 61 59 60 60 57 58 57
42 43 42 42 46 47 45 43 48 54 56 61 63 64 64 62 64 65 67 66 68 69 69 69 70 71 69 69 68 67 64 62 62 64 66 67 68 66 65 65 64 62 62 61 60 60 60 58 55
40 47 46 44 41 35 45 33 43 48 52 56 60 62 65 67 67 68 66 64 63 68 71 71 71 69 70 70 67 65 65 63 66 67 67 67 66 66 65 65 64 63 63 62 61 61 61 58 56
43 47 45 43 41 39 38 33 38 46 45 52 56 58 61 65 67 66 64 66 65 66 64 69 70 69 71 69 69 66 65 66 67 67 65 65 66 66 65 65 64 63 63 63 62 61 60 60 60
51 46 45 44 40 32 39 37 39 43 49 50 56 57 58 58 59 62 61 61 61 61 60 62 63 67 70 69 68 68 65 65 65 64 63 64 65 65 66 65 64 64 64 63 63 62 61 61 61
46 41 32 30 31 29 40 36 43 49 52 54 56 54 55 56 57 59 59 58 59 59 59 61 60 62 64 67 69 68 68 67 65 64 63 64 64 64 64 65 64 64 64 64 64 62 62 60 60
43 41 33 26 27 28 36 32 40 53 56 56 57 56 55 55 57 57 59 58 58 59 59 58 59 60 61 62 65 68 68 68 67 67 66 65 65 66 66 65 65 64 64 64 63 62 62 62 60
43 38 44 33 23 26 32 40 49 54 51 52 53 52 52 54 55 55 57 58 59 58 59 58 57 58 59 60 62 63 66 67 68 68 67 67 66 66 66 65 64 65 63 63 63 62 62 61 60
47 49 35 35 26 22 29 33 39 46 48 50 51 51 53 52 54 55 57 57 58 57 57 57 58 57 57 58 59 62 63 65 67 68 66 66 67 66 65 64 63 64 63 63 62 62 63 61 61
40 40 41 41 34 28 25 32 46 50 51 50 52 54 55 54 53 55 57 57 57 57 56 56 56 56 56 56 57 57 58 60 63 66 66 66 66 66 64 63 63 63 62 62 61 62 62 61 60
41 40 40 35 30 31 32 33 50 51 52 51 52 53 53 53 54 57 57 56 57 56 56 56 56 55 56 56 56 56 57 58 58 61 65 66 65 64 65 66 64 63 63 62 61 60 61 61 59

GFSSGP_sfc_temp_144.txt.gz
Temp
71 74 69 70 60 55 50 54 57 60 58 62 65 65 61 58 59 53 67 71 71 71 73 74 74 75 75 75 75 75 76 76 77 77 77 77 76 75 76 75 75 75 76 76 75 74 74 73 72
72 76 71 62 53 47 49 54 57 60 64 65 66 62 61 56 62 64 64 71 72 72 73 72 72 74 74 74 74 75 75 76 76 77 77 76 76 76 75 75 75 75 76 75 74 74 73 72 72
77 74 65 56 49 48 50 56 58 62 63 65 62 65 61 60 63 66 69 72 72 71 72 71 72 74 74 74 74 75 75 75 76 76 77 76 75 75 75 75 75 75 75 74 74 73 72 71 72
71 68 64 54 49 54 57 59 61 61 63 67 64 59 61 66 66 69 72 73 71 70 70 70 72 74 74 74 75 75 76 76 76 76 76 76 75 75 75 75 74 73 75 74 73 72 71 71 71
67 61 53 50 51 56 57 61 62 61 60 61 63 59 59 65 70 70 70 72 69 68 70 71 72 73 73 74 74 75 75 75 75 75 76 76 75 74 74 74 74 75 74 73 72 71 70 70 70
62 59 49 46 52 58 59 64 64 61 62 62 61 58 58 65 68 68 69 69 70 68 70 70 68 70 72 73 73 73 74 74 75 75 75 75 76 74 74 74 74 74 72 72 71 70 70 70 70
58 53 48 47 51 56 61 66 62 61 61 62 66 57 57 62 68 68 68 69 69 70 69 68 68 69 68 69 70 71 72 72 73 73 73 73 74 73 73 74 73 73 72 72 71 70 69 69 69
59 56 48 48 50 55 61 62 63 64 61 66 66 56 56 63 67 68 68 69 71 70 68 67 67 67 67 67 66 67 69 70 70 70 69 68 69 71 69 69 71 72 72 71 70 69 69 69 69
62 51 47 51 54 57 62 59 64 64 64 63 63 62 63 67 66 65 64 67 68 67 66 67 67 67 66 66 65 65 66 66 67 66 65 63 64 65 66 66 70 70 70 70 69 69 68 67 66
57 49 53 58 56 56 61 60 62 60 59 57 58 61 63 65 63 63 61 62 63 65 65 66 66 66 66 69 65 64 65 64 63 63 62 62 62 62 64 62 66 67 67 68 69 68 66 64 60
55 51 57 60 62 62 61 61 61 58 56 61 60 60 61 61 60 61 61 62 64 65 66 66 66 66 66 67 64 64 63 62 61 61 61 61 62 59 60 59 60 61 61 61 63 62 60 60 59
51 59 60 62 62 61 58 60 61 57 61 64 65 63 61 61 61 61 62 61 63 64 66 67 67 66 66 67 65 64 63 62 61 61 61 60 59 58 58 58 59 58 59 58 58 57 58 59 60
53 57 61 62 60 60 62 59 58 60 65 65 65 63 61 61 62 62 63 63 63 64 66 67 67 66 67 65 65 64 64 63 63 62 62 61 60 59 59 59 58 58 58 57 57 57 58 58 59
55 58 59 60 60 60 59 58 59 60 62 61 62 60 60 61 62 61 61 63 63 65 65 66 66 67 67 66 64 65 65 64 63 63 63 62 62 60 59 59 58 57 57 57 57 57 58 58 60
57 52 55 56 58 58 59 54 54 62 61 61 60 60 60 61 61 62 64 64 66 66 66 66 67 66 67 67 65 65 65 66 64 64 64 64 62 62 62 59 58 58 58 58 57 57 58 57 59
50 51 43 54 57 59 57 49 56 62 58 59 61 58 59 62 62 64 65 66 67 67 67 67 70 68 67 67 66 67 66 66 66 65 65 65 64 63 60 60 59 59 59 59 57 56 56 56 57
50 45 43 48 56 54 52 47 56 61 60 57 57 59 59 62 62 64 65 66 67 68 68 68 69 69 67 67 67 67 67 66 66 66 65 65 65 64 63 61 60 60 59 57 58 57 57 56 56
44 40 45 43 48 48 47 47 52 56 56 55 56 57 58 60 63 66 66 67 67 67 68 69 69 70 68 67 67 67 66 67 67 66 66 65 65 64 62 61 60 61 60 58 56 57 56 56 56
43 42 41 41 48 46 45 45 49 53 52 52 55 55 57 59 65 66 66 68 67 67 67 68 69 68 68 67 63 64 63 65 65 67 66 65 65 64 64 63 60 60 60 60 59 58 57 57 56
43 41 43 46 49 46 44 44 50 53 54 56 56 57 57 57 61 64 64 63 65 67 67 67 68 68 67 68 68 69 68 67 67 67 66 66 65 64 64 64 62 61 60 58 58 59 57 58 56
44 41 41 43 45 47 44 44 48 56 55 57 59 59 61 62 63 65 64 63 65 66 66 67 68 68 68 69 68 66 62 60 61 64 66 65 67 65 64 64 64 61 62 61 60 59 59 57 54
39 46 45 43 42 36 45 34 44 47 51 53 57 60 62 65 66 67 67 62 60 63 67 68 68 68 68 68 67 65 64 62 65 66 67 67 66 66 65 64 63 63 62 62 61 61 60 59 56
43 46 43 43 42 39 39 35 40 43 43 49 55 56 59 61 62 63 61 61 61 61 62 65 67 67 68 67 68 65 64 66 66 66 65 65 64 65 64 63 63 62 62 62 62 60 59 60 59
47 43 41 41 41 32 40 37 37 41 46 48 53 52 53 52 54 55 57 58 57 57 57 58 61 62 64 65 66 66 64 64 63 63 63 64 64 64 63 63 63 63 63 62 62 62 61 59 59
46 38 32 30 30 30 38 34 42 45 50 51 51 51 51 52 53 54 55 55 56 56 56 58 58 59 61 62 64 66 65 65 64 63 63 63 63 62 63 63 62 63 63 63 62 61 60 60 59
43 41 34 26 27 29 33 31 39 49 53 54 54 54 52 53 53 54 55 55 55 56 56 56 57 58 58 58 60 62 65 66 65 65 65 64 64 64 65 63 64 63 64 63 63 61 61 61 60
42 37 44 31 22 25 30 36 45 48 47 48 49 51 50 53 54 55 55 54 54 55 55 55 55 56 57 57 57 58 62 64 66 66 66 65 65 65 64 64 63 63 63 63 62 62 61 61 61
44 46 34 34 27 24 29 31 38 42 45 47 47 48 50 51 53 54 53 53 54 53 53 55 54 55 55 56 56 56 57 59 63 65 65 65 65 65 64 63 63 63 63 63 63 62 62 62 61
40 38 41 40 32 27 23 29 42 47 46 46 47 49 50 51 52 52 52 52 51 51 51 52 54 53 55 56 56 54 55 56 57 59 63 64 65 65 63 63 63 63 63 63 62 62 62 61 61
41 40 36 32 31 30 30 32 47 47 47 48 48 50 50 51 54 53 50 49 50 51 50 50 52 54 54 55 55 55 55 55 54 56 58 61 62 64 64 63 63 64 63 63 62 61 61 60 60

GFSSGP_sfc_temp_147.txt.gz
Temp
70 71 68 69 59 54 47 51 55 56 56 61 62 62 60 57 58 52 65 69 70 70 72 73 75 75 75 75 75 75 75 76 77 76 76 76 76 76 75 75 76 75 76 75 75 73 74 72 72
71 75 69 60 53 46 48 52 57 57 61 62 63 61 59 55 60 60 63 69 71 71 72 71 72 74 74 74 74 75 75 76 76 77 76 76 75 75 75 75 75 76 75 75 74 73 72 72 72
74 72 64 54 48 47 49 54 56 59 61 62 59 62 59 58 61 62 66 70 71 70 71 70 72 74 74 74 74 75 75 75 76 77 77 76 75 75 75 74 74 75 75 74 74 73 72 72 74
69 67 61 53 47 51 54 57 58 58 60 64 61 57 59 64 64 67 69 70 69 68 69 70 72 74 74 74 74 75 75 75 76 76 77 76 75 75 74 74 74 75 74 74 73 72 71 71 71
65 60 52 49 49 55 55 58 59 58 58 59 61 57 56 65 67 68 68 69 67 67 68 69 71 73 73 74 74 74 75 75 75 75 76 75 75 74 74 74 75 75 74 72 72 71 70 70 70
61 57 48 44 50 56 57 60 58 58 59 59 59 57 57 64 65 65 68 66 68 68 68 69 68 70 72 73 73 73 74 74 74 75 75 75 74 74 74 74 74 74 72 72 71 70 70 70 70
57 52 47 45 49 54 57 62 56 58 57 59 63 55 56 61 65 65 66 66 67 68 68 68 67 68 67 69 70 71 72 72 73 74 73 73 74 72 73 72 73 73 72 71 70 70 69 69 69
57 55 47 46 49 51 59 59 60 59 59 64 63 56 55 62 65 65 65 65 66 67 67 67 67 67 66 66 66 67 69 70 71 70 69 68 71 70 69 70 71 72 72 71 70 69 69 69 69
59 50 46 50 51 53 60 58 62 62 59 60 60 58 60 65 64 63 62 63 67 67 66 66 66 66 66 65 65 65 66 66 66 66 65 64 63 65 65 65 68 71 70 70 69 69 68 67 66
55 47 51 56 55 54 57 57 57 58 58 57 57 59 61 63 62 61 61 61 62 65 65 66 66 66 65 68 64 64 65 64 63 63 62 62 61 61 64 61 66 68 67 68 69 68 67 64 58
52 50 56 58 59 59 58 57 58 56 54 60 59 59 59 59 60 61 61 61 63 64 64 65 66 66 65 65 63 62 62 61 61 61 60 60 61 59 59 58 59 62 61 61 63 62 60 59 58
49 56 57 60 60 59 56 58 57 56 61 63 63 61 60 60 60 61 61 61 62 61 64 65 66 65 65 65 63 63 62 61 60 59 60 58 57 57 57 57 58 58 59 58 58 57 58 58 58
51 54 58 60 59 58 59 57 57 58 64 63 63 61 60 61 61 62 63 62 61 62 63 64 65 65 65 65 64 63 62 62 61 60 60 59 57 56 57 57 57 57 57 57 56 56 57 56 57
53 55 56 57 58 58 57 55 57 59 60 60 59 59 59 60 61 60 60 62 61 64 64 65 64 65 65 65 64 64 63 63 61 61 61 60 59 58 57 57 57 57 57 57 56 56 57 56 57
54 50 53 53 56 57 57 52 52 61 58 60 60 59 58 59 60 60 63 63 65 65 66 64 65 65 65 65 64 65 64 64 62 62 62 62 61 59 60 58 58 59 57 57 56 56 56 56 57
48 48 42 51 54 57 55 46 54 60 56 58 59 58 57 59 61 63 64 64 65 66 65 67 69 66 65 66 66 65 65 65 64 63 63 63 63 61 61 59 59 59 58 57 56 56 55 55 55
44 40 40 46 50 52 51 44 54 56 56 53 53 56 57 58 59 62 64 64 65 65 67 66 66 66 65 66 67 67 66 65 65 65 64 63 64 63 62 61 61 58 58 58 58 56 57 55 56
44 38 42 42 46 47 46 47 50 53 53 52 51 52 55 57 60 64 65 65 66 65 66 67 67 67 66 67 66 66 65 65 67 66 65 64 64 63 62 62 62 60 59 58 57 58 55 57 58
46 40 40 39 46 44 43 44 48 52 50 50 52 53 55 59 63 62 63 64 63 63 64 65 65 66 66 64 63 64 62 63 65 66 66 66 65 64 63 63 61 60 60 60 58 58 57 56 55
45 43 42 46 49 48 44 44 50 52 53 56 55 57 59 60 59 62 62 61 61 65 64 65 66 67 66 67 66 67 66 66 67 66 66 66 65 64 64 64 63 60 60 59 59 58 57 57 55
43 41 43 43 45 44 43 44 48 55 55 58 59 59 61 61 63 64 63 63 60 61 64 64 66 67 67 68 67 65 62 60 61 63 64 65 65 64 63 64 64 62 61 61 59 58 58 57 54
39 44 44 42 41 35 42 34 45 47 47 51 54 56 58 58 61 64 63 61 59 60 61 63 65 66 67 67 66 64 64 62 65 66 65 65 63 64 64 63 63 63 61 62 61 60 59 58 56
42 45 42 41 38 39 41 35 37 41 46 51 52 54 52 57 59 57 58 60 60 59 58 61 62 63 64 64 66 64 63 65 66 63 63 63 63 63 64 63 63 62 62 61 61 59 58 59 58
45 42 40 41 40 32 39 38 40 44 47 46 49 51 50 50 50 52 54 55 55 55 54 55 57 59 61 61 63 64 62 63 62 61 61 62 62 62 63 63 62 63 62 62 61 60 59 58 60
45 39 32 30 30 29 37 36 41 49 48 50 50 47 48 49 50 52 52 52 53 53 53 55 55 56 57 59 60 61 63 62 62 62 62 62 61 61 61 61 61 62 62 62 62 61 60 59 59
40 43 34 25 26 27 32 31 39 49 54 56 52 52 49 48 50 51 51 51 51 52 52 52 53 53 54 55 56 57 59 62 63 63 64 63 63 63 63 62 62 62 62 62 62 61 61 61 60
39 37 44 32 25 26 31 34 43 46 45 44 47 48 48 49 50 49 50 50 51 52 52 52 53 53 54 55 55 54 55 56 59 62 63 63 64 64 63 62 61 62 62 62 62 61 61 61 61
44 45 34 34 27 25 28 29 36 40 42 43 44 46 46 48 48 48 49 48 50 50 51 52 52 51 51 53 53 54 53 54 55 57 58 60 62 63 62 61 61 62 62 62 62 62 62 61 61
39 35 36 37 33 27 22 29 39 43 44 44 46 46 47 46 45 46 46 47 48 49 48 50 50 49 49 50 51 52 52 53 54 55 56 57 58 60 61 61 61 61 62 63 62 62 62 60 60
42 39 37 31 31 32 31 33 42 42 42 46 45 46 47 46 44 44 44 45 45 46 46 47 48 47 47 48 49 49 50 50 50 51 53 54 55 57 58 60 61 61 62 63 62 61 61 60 60

GFSSGP_sfc_temp_150.txt.gz
Temp
70 70 68 69 59 53 46 50 52 54 54 57 60 59 58 55 57 51 63 68 68 69 71 72 74 75 75 75 75 75 75 76 77 77 76 76 75 75 75 75 74 75 75 74 74 76 74 73 73
69 73 68 59 52 46 48 51 54 55 58 59 60 59 57 54 59 59 62 68 69 70 70 71 74 75 74 74 74 75 75 76 76 76 76 75 75 75 75 76 75 76 75 75 73 74 73 73 74
73 69 63 53 46 46 49 53 55 57 59 58 57 59 56 57 59 61 65 68 69 69 69 70 72 74 74 74 74 75 75 75 76 76 76 75 75 75 75 75 75 75 75 75 74 73 72 74 73
68 66 60 52 46 49 51 53 56 58 59 61 59 55 58 62 61 64 67 69 69 68 68 70 72 74 74 74 74 75 75 75 76 77 76 76 75 74 74 75 74 75 75 74 73 72 71 71 71
64 59 51 48 47 53 53 56 58 55 56 57 58 55 55 62 64 65 66 68 70 68 67 68 71 73 73 74 74 74 75 75 75 76 76 75 75 74 74 74 75 74 73 73 72 71 70 70 70
60 57 47 44 47 54 55 57 58 56 57 57 57 55 56 62 63 64 66 66 68 69 67 68 68 70 71 72 73 73 74 74 74 75 76 75 74 74 74 74 74 74 72 72 71 70 70 70 70
56 52 46 44 47 51 55 57 55 56 55 57 61 54 56 59 63 64 65 65 66 68 67 67 67 67 67 69 70 71 72 74 73 74 74 73 72 73 73 72 73 73 72 71 70 69 69 69 69
56 53 45 44 47 49 56 57 58 58 56 60 61 56 54 59 63 64 64 64 65 67 66 66 66 66 66 66 66 67 69 70 71 70 69 68 72 70 70 69 71 72 72 71 70 69 69 69 69
57 49 45 48 50 51 56 55 59 60 59 58 59 57 58 61 62 61 61 64 65 67 68 66 65 65 65 65 65 64 65 66 67 66 65 65 63 66 64 65 68 71 71 70 70 69 68 67 66
54 47 50 54 53 52 56 55 56 56 55 55 56 57 59 61 60 60 59 63 64 66 67 68 66 65 65 67 64 63 64 63 63 62 62 62 61 61 63 61 64 68 68 69 69 68 67 63 57
51 49 53 56 57 57 56 55 56 55 53 59 57 57 57 58 59 59 60 62 63 66 67 67 67 65 64 64 63 62 62 61 61 61 60 60 60 58 58 58 59 61 62 62 63 61 59 58 57
48 54 55 58 58 57 55 57 58 55 59 62 60 59 58 59 59 60 60 61 60 61 63 64 66 66 65 65 63 62 62 61 60 60 60 58 57 56 56 56 57 57 58 58 58 57 57 57 57
49 52 56 58 57 56 57 56 57 56 63 60 61 60 59 59 60 61 62 61 61 61 62 63 64 65 66 65 66 64 62 62 62 60 60 58 57 56 56 56 56 56 57 57 56 56 56 56 56
52 52 53 55 56 56 55 52 55 55 58 60 57 58 58 58 60 58 59 60 61 63 62 63 64 65 64 65 67 66 64 63 61 61 61 59 59 57 56 56 56 56 57 57 57 56 56 56 56
52 49 51 51 54 54 54 51 50 57 56 57 58 57 57 58 59 60 62 62 63 64 65 62 63 64 64 64 64 66 66 63 62 62 61 61 60 58 58 57 57 57 57 57 56 56 56 55 56
46 45 40 49 52 54 53 45 53 54 51 55 56 55 56 58 59 60 62 62 64 64 62 64 67 64 64 64 64 65 64 63 63 63 62 62 62 60 59 58 58 58 57 58 57 56 55 55 55
45 39 38 45 49 49 50 42 53 54 53 52 52 53 55 56 59 59 62 62 64 63 64 63 64 64 64 64 65 64 64 63 63 63 63 62 63 62 61 60 60 58 58 57 58 56 56 55 56
43 41 42 41 44 45 45 44 49 53 51 50 50 50 51 55 60 64 62 62 63 63 64 65 64 65 64 65 64 63 63 64 65 64 63 63 63 62 61 62 60 58 58 57 56 57 55 57 57
45 40 38 38 47 43 43 43 47 51 48 48 52 53 55 58 63 66 66 64 61 61 61 63 63 64 64 61 61 62 61 63 62 65 65 65 64 63 62 62 61 60 59 59 58 57 56 55 54
46 41 42 43 46 44 43 45 51 49 50 54 55 57 58 59 61 63 63 60 59 62 60 62 63 65 64 65 65 65 63 64 64 64 65 65 65 64 64 63 62 61 60 59 59 58 56 55 54
43 41 39 42 42 44 40 43 48 55 52 53 54 55 58 58 59 62 62 60 59 58 59 61 62 64 64 65 64 61 60 58 59 63 64 64 64 63 63 64 63 62 61 61 60 59 58 57 53
38 43 43 41 38 34 41 33 45 44 48 49 52 51 54 58 57 59 60 58 58 57 58 59 61 62 64 64 63 61 62 60 63 64 63 64 63 63 62 63 63 62 61 61 61 60 59 59 57
40 44 41 40 36 35 38 35 36 41 43 51 54 51 54 51 51 52 53 55 53 53 52 54 57 59 61 61 63 61 60 63 61 60 61 61 62 63 62 62 62 62 62 61 62 61 59 60 59
45 43 42 40 40 32 37 37 39 43 46 49 47 48 49 48 48 49 50 52 51 51 53 54 55 55 57 59 59 60 59 60 59 58 58 60 60 61 62 62 61 61 61 61 61 61 61 59 60
43 40 31 30 29 29 33 35 40 46 48 47 48 48 45 47 47 47 47 48 49 50 51 54 53 51 53 54 55 57 60 61 60 60 61 61 62 60 61 61 61 60 61 61 61 60 60 61 59
39 41 33 24 23 27 32 31 40 46 45 49 49 49 48 47 46 45 45 47 48 48 49 50 50 50 51 52 52 53 53 54 56 59 61 62 63 63 64 62 61 61 61 61 61 61 61 61 60
39 36 44 32 26 24 29 33 43 44 46 43 43 47 45 44 43 43 44 45 46 47 47 48 48 48 49 50 50 51 52 53 52 54 55 56 58 60 61 61 62 61 61 60 60 60 60 61 60
42 44 34 34 26 20 27 26 33 39 42 42 43 44 42 41 41 42 43 43 44 45 46 46 46 45 47 48 48 49 49 51 53 53 52 53 54 56 56 59 60 61 61 61 61 60 61 60 60
39 37 37 35 34 27 27 29 36 36 39 40 43 42 39 38 39 40 41 42 42 43 43 43 43 43 43 45 46 47 47 47 49 49 50 50 51 52 53 55 56 58 60 61 61 61 61 60 60
42 42 40 31 30 32 30 31 39 37 40 43 40 39 39 39 38 39 40 40 39 40 41 41 40 40 41 43 43 44 44 45 44 44 46 47 47 48 49 51 52 54 56 58 60 60 61 60 59